Wind_Speed
5 4 4 4 4 4 4 3 2 2 1 1 1 1 2 3 3 2 3 3 3 3 3 3 3 3 3 3 3 3 4 4 4 5 5 5 5 4 4 4 3 3 3
5 4 5 4 3 3 3 2 2 2 1 1 2 3 3 4 4 3 3 4 4 4 4 4 4 4 4 4 4 4 5 5 5 5 5 6 6 6 6 6 5 5 5
4 4 4 3 3 3 3 2 2 2 3 3 3 4 4 4 3 4 4 5 5 5 5 5 5 5 5 5 6 5 5 5 5 6 6 6 6 6 7 8 8 7 7
4 4 3 2 2 1 2 2 2 3 4 5 5 5 5 5 5 6 6 6 6 7 6 6 6 7 7 7 7 6 6 6 6 6 6 7 7 8 8 9 9 9 9
3 3 2 2 1 1 1 2 2 4 5 6 6 6 6 5 5 6 7 7 7 7 7 7 8 8 8 8 8 8 8 7 8 8 8 8 8 9 9 9 10 11 11
3 3 2 2 2 1 1 1 2 3 4 5 5 5 5 6 5 6 7 8 8 7 8 9 9 10 9 9 9 9 9 9 9 9 9 9 10 10 10 10 10 11 11
3 3 2 2 2 2 1 1 2 3 3 3 4 4 5 6 7 7 7 7 7 8 8 9 9 9 9 9 10 10 9 9 9 10 10 10 11 11 11 10 10 11 11
4 3 2 1 1 1 2 2 2 3 4 4 4 4 4 6 6 7 7 7 7 7 7 8 8 9 9 9 9 10 10 10 11 11 11 11 11 11 11 12 12 12 13
4 4 3 2 2 2 2 3 3 3 4 4 5 5 5 6 6 6 5 6 6 7 7 7 8 8 8 8 9 10 11 11 11 11 11 12 12 13 13 13 14 14 14
3 3 3 3 3 3 4 3 4 4 5 6 6 6 6 6 6 6 6 7 8 8 9 9 10 10 10 10 10 11 12 12 13 13 13 13 14 15 14 14 15 15 16
3 4 4 4 4 4 4 4 5 5 6 7 7 7 7 7 7 7 8 9 10 10 10 11 11 11 12 12 12 12 13 14 14 14 14 14 15 16 16 16 17 17 18
4 5 5 5 5 5 5 5 6 6 7 7 8 8 8 9 9 9 9 10 11 11 12 12 13 13 13 13 13 13 13 13 14 15 15 16 16 17 17 17 18 19 19
5 5 6 6 6 7 7 7 7 8 9 9 9 9 10 10 10 11 12 12 12 13 13 13 13 13 13 14 14 15 15 15 15 16 16 17 18 18 19 19 20 20 20
6 7 7 7 7 8 8 8 8 9 9 10 10 10 11 11 12 13 13 13 13 13 14 14 14 13 15 15 15 16 16 17 17 18 18 18 19 20 20 21 21 21 22
9 9 9 9 9 9 9 9 9 10 11 11 11 12 12 13 14 14 15 15 15 14 15 15 16 16 16 16 17 17 18 18 19 19 18 19 19 20 20 21 22 22 23
11 11 11 11 11 11 11 11 12 12 12 13 13 13 14 15 16 16 16 17 17 16 16 17 17 18 18 18 18 19 19 19 21 20 21 21 21 21 21 21 22 23 24
14 14 13 13 13 13 13 14 14 14 14 14 14 15 15 16 17 18 18 19 19 19 19 19 19 20 21 21 21 21 21 22 22 22 23 23 23 23 23 23 23 23 24
16 16 16 15 15 15 15 16 16 16 16 16 16 16 17 18 18 19 19 20 20 20 21 20 21 22 22 23 23 23 24 24 24 24 24 25 25 25 25 25 25 25 25
18 18 18 18 18 18 18 18 17 18 18 18 18 19 19 20 21 21 22 22 22 22 23 23 23 24 24 24 24 25 25 25 25 25 26 26 27 27 27 27 27 27 27
20 20 20 20 20 20 20 20 19 19 19 20 20 21 22 22 23 23 23 24 24 24 25 25 26 26 26 26 26 26 26 26 27 27 27 27 28 28 28 27 27 27 27
23 23 23 23 23 22 22 22 21 21 22 22 22 23 24 24 25 25 26 26 26 26 26 26 27 27 27 27 28 28 27 27 28 28 28 28 28 28 28 28 28 28 28
26 25 26 26 24 24 24 24 24 24 24 24 25 25 26 26 27 27 28 29 28 28 28 28 28 28 28 28 29 29 29 28 28 29 30 29 30 30 29 29 28 28 28
28 28 28 27 26 26 26 26 26 26 27 27 26 26 27 28 29 29 30 31 30 30 30 30 29 29 29 29 29 29 29 29 29 29 29 29 30 30 29 29 29 29 28
30 30 29 28 27 27 27 27 28 29 28 29 29 28 29 30 30 30 31 31 31 31 30 31 31 31 30 29 29 29 29 29 29 29 29 28 29 30 30 30 29 29 29
31 32 31 29 29 29 29 30 31 30 29 30 30 30 30 31 31 31 31 30 30 30 30 30 30 30 30 30 30 29 29 29 29 29 29 29 29 30 30 29 30 30 30
33 33 33 31 31 31 32 32 31 31 31 31 31 31 32 32 32 32 32 31 30 30 30 30 30 30 30 30 30 30 30 29 30 29 29 29 29 30 30 30 30 30 29
Wind_Direction
132 133 144 141 150 157 159 160 159 164 190 213 220 279 277 258 255 247 253 252 253 261 271 282 270 262 267 279 286 299 310 298 300 287 277 276 273 266 264 260 253 256 262
126 125 131 134 146 160 171 181 204 230 245 245 256 276 271 279 271 262 255 255 257 265 275 276 270 275 281 279 283 288 301 307 297 286 280 275 271 262 258 255 256 256 261
117 119 129 130 140 168 193 208 231 239 239 255 276 279 269 280 266 263 264 266 266 273 273 266 272 276 287 284 290 290 285 287 291 282 279 276 272 264 261 257 258 261 262
123 122 121 138 156 167 205 229 247 259 263 264 272 277 282 283 270 269 274 274 273 275 270 269 276 277 283 284 288 284 274 274 278 279 274 274 271 265 263 263 264 265 265
111 115 113 133 150 188 227 234 248 266 266 268 272 280 277 279 275 270 271 274 271 274 274 274 278 276 277 279 280 279 273 272 275 272 269 269 270 268 267 269 268 268 269
95 102 91 95 81 57 25 269 285 280 280 279 283 285 280 280 278 275 277 276 274 274 273 275 275 275 275 277 274 271 271 276 276 270 266 267 267 269 270 272 271 271 268
72 75 69 65 62 44 18 333 302 302 302 306 300 292 287 286 279 280 281 290 287 278 278 279 278 278 274 278 272 269 270 274 275 271 270 271 270 273 272 272 274 272 267
55 48 41 16 2 343 325 310 299 300 294 300 306 299 300 306 297 286 291 293 295 291 287 285 284 285 283 285 273 267 270 275 276 273 271 271 270 269 271 271 273 272 271
42 36 36 19 7 0 349 343 324 303 307 308 304 300 299 307 308 296 300 299 296 303 298 289 286 291 288 286 280 271 270 273 273 274 271 271 268 268 269 269 271 272 272
16 10 7 357 349 331 329 337 338 336 334 330 333 326 320 314 307 296 294 291 293 295 294 293 290 288 287 282 281 277 273 273 273 273 272 271 272 269 269 270 271 272 274
351 352 1 355 336 327 329 328 328 320 324 321 318 319 315 310 302 298 298 296 294 293 293 292 293 292 288 282 280 278 277 276 276 273 273 271 270 271 272 273 273 273 274
331 336 339 338 327 318 320 321 322 316 315 316 314 312 310 305 303 301 298 295 293 292 294 292 290 292 290 284 280 279 279 278 279 278 277 274 274 274 274 276 276 274 273
307 313 315 320 319 312 309 308 309 306 309 312 311 310 308 304 301 298 298 298 296 294 296 295 293 290 289 288 284 281 280 280 281 280 278 279 278 277 277 276 275 274 274
297 301 304 305 308 312 310 304 300 301 304 306 304 302 302 303 300 299 299 301 299 296 294 292 289 287 285 286 288 285 284 283 281 283 282 280 280 279 278 276 275 275 274
288 290 295 299 302 305 309 308 303 300 300 300 298 297 298 300 298 299 301 299 297 295 293 290 288 285 285 284 285 287 286 285 282 282 283 284 283 282 283 279 276 277 276
282 282 283 291 296 298 301 302 297 295 298 299 296 294 296 298 297 296 297 297 294 292 291 291 290 286 284 284 284 284 285 284 286 283 285 285 284 283 285 283 281 279 278
278 280 280 285 289 291 293 294 295 292 292 294 296 297 298 296 295 295 295 294 292 290 290 289 288 287 286 285 284 284 284 285 285 285 283 284 285 284 285 283 284 284 282
277 279 278 280 283 286 288 289 291 292 293 293 294 297 298 298 298 297 297 297 294 291 289 288 288 288 288 285 284 284 285 285 286 285 285 284 285 286 285 285 283 283 281
275 276 276 277 280 283 285 286 287 289 289 289 291 293 294 295 296 295 295 295 294 291 290 288 288 287 288 288 286 284 284 285 285 286 286 285 286 286 285 285 286 285 283
273 274 276 278 280 281 282 283 283 285 286 288 289 291 291 292 293 293 292 292 292 291 290 288 287 287 286 286 286 285 284 284 286 288 286 284 285 284 284 284 284 284 284
270 272 274 276 278 278 279 279 280 282 284 286 286 287 288 290 291 290 290 290 291 290 289 288 287 287 285 285 285 285 284 285 285 287 286 284 283 283 283 284 284 285 284
271 274 272 273 274 275 276 277 279 282 285 286 285 285 287 289 290 290 290 289 289 289 289 288 286 285 284 284 284 284 283 285 285 284 284 283 283 282 282 283 283 284 283
271 271 273 273 272 274 276 277 279 281 283 285 286 286 288 288 289 290 291 291 290 288 287 286 286 285 284 283 284 283 283 282 284 283 283 283 283 281 280 281 282 283 282
269 270 270 271 273 275 276 276 279 281 283 285 286 288 290 290 293 292 291 290 288 287 287 286 286 285 284 284 284 283 283 282 282 282 284 283 283 281 279 279 280 282 282
269 270 270 272 272 274 276 276 278 280 284 287 288 288 290 290 292 292 291 289 287 287 286 286 287 288 287 285 284 282 282 281 281 282 283 283 283 281 280 280 280 280 281
269 270 270 272 272 273 275 275 276 280 283 285 287 288 288 289 290 290 290 288 286 286 285 286 287 287 286 286 284 282 282 281 281 281 282 283 284 282 280 280 280 279 278
Height
5903 5904 5904 5905 5906 5906 5907 5907 5907 5907 5907 5907 5906 5906 5906 5906 5905 5905 5904 5903 5903 5902 5902 5902 5901 5901 5900 5900 5900 5899 5898 5898 5897 5896 5896 5895 5895 5895 5894 5894 5894 5893 5893
5904 5905 5905 5905 5905 5906 5906 5906 5906 5906 5906 5906 5905 5906 5906 5905 5904 5904 5903 5902 5902 5901 5901 5901 5900 5900 5899 5899 5898 5898 5897 5897 5896 5895 5895 5894 5894 5893 5893 5893 5892 5892 5892
5904 5905 5905 5905 5905 5905 5906 5906 5906 5906 5906 5905 5905 5905 5904 5904 5904 5903 5902 5901 5900 5900 5900 5899 5899 5899 5898 5898 5897 5896 5896 5895 5894 5894 5893 5893 5892 5892 5892 5891 5891 5890 5890
5905 5905 5905 5905 5905 5905 5905 5905 5905 5905 5905 5905 5904 5904 5903 5903 5902 5901 5901 5900 5899 5899 5899 5898 5897 5897 5897 5896 5895 5895 5894 5893 5893 5892 5892 5891 5891 5890 5890 5889 5889 5889 5888
5905 5905 5905 5905 5905 5904 5904 5904 5904 5904 5904 5904 5903 5903 5902 5902 5901 5900 5900 5899 5898 5897 5897 5896 5895 5895 5895 5894 5893 5893 5892 5892 5891 5890 5890 5889 5889 5888 5888 5887 5887 5886 5886
5905 5905 5905 5905 5904 5904 5903 5903 5903 5903 5903 5902 5902 5901 5901 5900 5899 5899 5898 5897 5896 5895 5894 5894 5893 5893 5892 5892 5891 5891 5890 5889 5889 5888 5887 5887 5886 5886 5885 5884 5884 5884 5883
5904 5904 5904 5904 5904 5903 5903 5903 5902 5902 5901 5901 5900 5900 5899 5898 5898 5897 5896 5895 5894 5893 5893 5892 5891 5890 5889 5889 5889 5888 5888 5887 5886 5886 5885 5884 5884 5883 5882 5882 5882 5881 5881
5904 5904 5904 5903 5903 5903 5902 5901 5901 5900 5900 5900 5899 5899 5898 5897 5896 5895 5895 5894 5893 5892 5891 5890 5889 5888 5887 5886 5886 5886 5885 5884 5884 5883 5882 5882 5881 5880 5880 5879 5879 5878 5878
5904 5904 5903 5903 5902 5901 5901 5900 5900 5899 5899 5898 5898 5897 5897 5896 5894 5894 5893 5892 5891 5890 5889 5888 5886 5886 5885 5884 5884 5883 5882 5881 5881 5880 5879 5879 5878 5877 5877 5876 5875 5875 5874
5903 5903 5902 5901 5901 5900 5900 5899 5899 5898 5897 5897 5896 5896 5895 5894 5893 5892 5891 5890 5889 5888 5887 5885 5884 5883 5883 5882 5881 5880 5879 5878 5877 5877 5876 5875 5874 5874 5873 5872 5872 5871 5870
5903 5902 5901 5900 5899 5899 5899 5898 5897 5897 5896 5895 5894 5894 5893 5892 5891 5890 5889 5888 5887 5885 5884 5883 5882 5881 5880 5879 5878 5877 5876 5875 5874 5873 5872 5871 5870 5870 5869 5868 5867 5867 5866
5902 5901 5900 5899 5898 5898 5897 5897 5896 5895 5894 5893 5893 5892 5891 5890 5889 5888 5887 5885 5884 5883 5881 5880 5879 5878 5877 5876 5875 5873 5872 5871 5870 5869 5868 5867 5866 5865 5865 5864 5863 5862 5861
5901 5900 5899 5898 5897 5896 5896 5895 5894 5893 5892 5891 5890 5889 5888 5887 5886 5885 5883 5882 5881 5880 5878 5877 5876 5875 5873 5872 5871 5870 5868 5867 5866 5865 5864 5863 5862 5861 5860 5859 5858 5857 5856
5899 5898 5898 5897 5896 5895 5893 5892 5892 5891 5890 5889 5887 5886 5885 5884 5883 5881 5880 5879 5877 5876 5875 5873 5872 5871 5869 5868 5867 5865 5864 5863 5862 5860 5859 5858 5857 5856 5854 5853 5852 5851 5850
5896 5896 5895 5894 5893 5892 5891 5890 5889 5888 5886 5885 5884 5883 5882 5880 5879 5877 5876 5874 5874 5872 5871 5869 5868 5866 5865 5863 5862 5861 5859 5858 5856 5855 5853 5852 5851 5850 5849 5847 5846 5845 5844
5893 5892 5892 5891 5890 5889 5888 5886 5885 5884 5883 5881 5880 5879 5878 5876 5874 5873 5871 5870 5868 5867 5866 5865 5863 5861 5860 5858 5857 5856 5854 5853 5851 5849 5848 5847 5845 5844 5843 5841 5840 5839 5837
5889 5888 5888 5887 5886 5885 5884 5883 5881 5880 5879 5878 5876 5875 5873 5872 5870 5868 5866 5865 5863 5862 5861 5859 5857 5856 5854 5853 5851 5850 5849 5847 5845 5844 5842 5841 5839 5838 5836 5835 5834 5832 5831
5884 5884 5883 5882 5882 5881 5879 5878 5877 5876 5874 5873 5872 5870 5869 5867 5865 5863 5861 5859 5857 5856 5854 5853 5852 5850 5848 5846 5845 5844 5842 5841 5839 5837 5836 5834 5833 5831 5830 5828 5827 5825 5824
5879 5878 5878 5877 5876 5875 5874 5873 5872 5871 5869 5868 5867 5865 5863 5862 5860 5858 5856 5853 5851 5849 5848 5846 5845 5843 5841 5839 5838 5837 5835 5834 5832 5830 5828 5827 5825 5824 5822 5821 5819 5817 5816
5873 5872 5872 5871 5870 5870 5868 5867 5866 5865 5863 5862 5861 5859 5857 5855 5853 5851 5849 5847 5845 5842 5840 5838 5837 5835 5834 5832 5830 5829 5828 5826 5824 5823 5821 5819 5817 5816 5815 5813 5811 5810 5808
5866 5865 5865 5864 5864 5863 5862 5861 5860 5858 5857 5856 5854 5852 5850 5848 5846 5843 5841 5839 5837 5834 5832 5830 5829 5827 5825 5824 5823 5821 5820 5818 5816 5815 5813 5811 5810 5808 5806 5805 5803 5802 5800
5858 5858 5857 5856 5856 5856 5855 5854 5853 5852 5850 5849 5847 5845 5842 5840 5838 5835 5833 5830 5828 5826 5824 5822 5821 5819 5817 5816 5814 5813 5812 5810 5809 5807 5805 5803 5802 5800 5798 5797 5795 5794 5792
5850 5850 5849 5848 5848 5848 5847 5847 5845 5844 5842 5841 5839 5836 5834 5832 5830 5827 5824 5822 5820 5817 5816 5814 5812 5811 5809 5807 5806 5804 5803 5802 5800 5798 5796 5795 5793 5791 5790 5788 5787 5786 5784
5841 5841 5840 5840 5840 5840 5839 5838 5837 5836 5834 5832 5830 5828 5826 5823 5821 5818 5815 5813 5811 5808 5806 5805 5803 5801 5800 5798 5796 5795 5794 5792 5791 5789 5788 5786 5784 5782 5781 5780 5779 5777 5776
5832 5832 5832 5832 5832 5831 5831 5830 5828 5827 5825 5823 5821 5819 5817 5815 5812 5809 5806 5804 5802 5800 5797 5795 5794 5792 5790 5789 5787 5786 5785 5783 5782 5781 5779 5778 5776 5774 5772 5771 5770 5769 5768
5822 5822 5822 5822 5822 5822 5821 5820 5819 5818 5816 5815 5812 5810 5808 5805 5803 5800 5797 5795 5793 5791 5789 5787 5785 5783 5781 5779 5778 5777 5776 5774 5773 5772 5770 5769 5767 5765 5764 5763 5761 5760 5759